Hourly Weather Holroyd

Today, 16 April, Friday

Time Temperature Precipitation Wind Pressure Humidity
00:00 +14°C° 0 mm 3 mps 756 mmHg 56%
01:00 +14°C° 0 mm 3 mps 756 mmHg 57%
02:00 +13°C° 0 mm 3 mps 756 mmHg 58%
03:00 +13°C° 0 mm 3 mps 756 mmHg 58%
04:00 +13°C° 0 mm 3 mps 756 mmHg 59%
05:00 +13°C° 0 mm 2 mps 757 mmHg 60%
06:00 +13°C° 0 mm 2 mps 757 mmHg 61%
07:00 +13°C° 0 mm 2 mps 758 mmHg 62%
08:00 +15°C° 0 mm 2 mps 758 mmHg 59%
09:00 +18°C° 0 mm 3 mps 759 mmHg 56%
10:00 +20°C° 0 mm 3 mps 759 mmHg 52%
11:00 +20°C° 0 mm 4 mps 759 mmHg 53%
12:00 +20°C° 0 mm 5 mps 759 mmHg 54%
13:00 +20°C° 0 mm 5 mps 759 mmHg 55%
14:00 +20°C° 0 mm 5 mps 759 mmHg 56%
15:00 +19°C° 0 mm 5 mps 759 mmHg 57%
16:00 +19°C° 0 mm 4 mps 759 mmHg 58%
17:00 +18°C° 0 mm 4 mps 760 mmHg 61%
18:00 +17°C° 0 mm 3 mps 760 mmHg 63%
19:00 +17°C° 0 mm 2 mps 761 mmHg 65%
20:00 +17°C° 0 mm 2 mps 761 mmHg 65%
21:00 +17°C° 0 mm 2 mps 761 mmHg 65%
22:00 +17°C° 0 mm 2 mps 761 mmHg 65%
23:00 +17°C° 0 mm 2 mps 761 mmHg 66%

Tomorrow, 17 April, Saturday

Time Temperature Precipitation Wind Pressure Humidity
00:00 +17°C° 0 mm 2 mps 761 mmHg 68%
01:00 +17°C° 0 mm 2 mps 761 mmHg 69%
02:00 +16°C° 0 mm 1 mps 761 mmHg 70%
03:00 +16°C° 0 mm 1 mps 761 mmHg 71%
04:00 +16°C° 0 mm 1 mps 761 mmHg 72%
05:00 +16°C° 0 mm 1 mps 761 mmHg 73%
06:00 +16°C° 0 mm 1 mps 761 mmHg 74%
07:00 +16°C° 0 mm 1 mps 761 mmHg 75%
08:00 +16°C° 0 mm 1 mps 761 mmHg 73%
09:00 +18°C° 0 mm 1 mps 761 mmHg 71%
10:00 +18°C° 0 mm 1 mps 761 mmHg 69%
11:00 +18°C° 0.2 mm 1 mps 761 mmHg 73%
12:00 +16°C° 0.2 mm 1 mps 760 mmHg 77%
13:00 +15°C° 0.2 mm 0 mps 759 mmHg 81%
14:00 +15°C° 0.2 mm 0 mps 759 mmHg 81%
15:00 +15°C° 0.2 mm 0 mps 759 mmHg 81%
16:00 +15°C° 0.2 mm 0 mps 759 mmHg 81%
17:00 +15°C° 0.3 mm 0 mps 760 mmHg 84%
18:00 +15°C° 0.3 mm 0 mps 760 mmHg 86%
19:00 +14°C° 0.3 mm 0 mps 761 mmHg 88%
20:00 +14°C° 0.1 mm 0 mps 761 mmHg 89%
21:00 +14°C° 0.1 mm 0 mps 761 mmHg 90%
22:00 +14°C° 0.1 mm 1 mps 761 mmHg 91%
23:00 +14°C° 0.2 mm 1 mps 760 mmHg 92%

Day after tomorrow, 18 April, Sunday

Time Temperature Precipitation Wind Pressure Humidity
00:00 +14°C° 0.2 mm 1 mps 760 mmHg 92%
01:00 +14°C° 0.2 mm 1 mps 760 mmHg 92%
02:00 +14°C° 0.1 mm 1 mps 760 mmHg 93%
03:00 +13°C° 0.1 mm 1 mps 759 mmHg 93%
04:00 +13°C° 0.1 mm 1 mps 759 mmHg 93%
05:00 +13°C° 0.1 mm 1 mps 760 mmHg 92%
06:00 +13°C° 0.1 mm 1 mps 760 mmHg 92%
07:00 +13°C° 0.1 mm 1 mps 760 mmHg 91%
08:00 +15°C° 0.1 mm 1 mps 760 mmHg 84%
09:00 +16°C° 0.1 mm 1 mps 760 mmHg 76%
10:00 +19°C° 0.1 mm 1 mps 760 mmHg 69%
11:00 +20°C° 0.1 mm 1 mps 759 mmHg 64%
12:00 +20°C° 0.1 mm 2 mps 759 mmHg 60%
13:00 +21°C° 0.1 mm 2 mps 758 mmHg 55%
14:00 +20°C° 0 mm 2 mps 758 mmHg 57%
15:00 +20°C° 0 mm 2 mps 758 mmHg 59%
16:00 +19°C° 0 mm 3 mps 757 mmHg 60%
17:00 +18°C° 0 mm 2 mps 758 mmHg 67%
18:00 +18°C° 0 mm 1 mps 758 mmHg 73%
19:00 +15°C° 0 mm 1 mps 758 mmHg 80%
20:00 +15°C° 0 mm 1 mps 759 mmHg 82%
21:00 +14°C° 0 mm 1 mps 759 mmHg 84%
22:00 +14°C° 0 mm 1 mps 759 mmHg 87%
23:00 +14°C° 0 mm 1 mps 758 mmHg 88%

19 April, Monday

Time Temperature Precipitation Wind Pressure Humidity
00:00 +13°C° 0 mm 1 mps 758 mmHg 90%
01:00 +13°C° 0 mm 1 mps 758 mmHg 91%
02:00 +13°C° 0 mm 1 mps 758 mmHg 92%
03:00 +12°C° 0 mm 1 mps 758 mmHg 92%
04:00 +12°C° 0 mm 1 mps 757 mmHg 93%
05:00 +12°C° 0 mm 1 mps 758 mmHg 92%
06:00 +12°C° 0 mm 1 mps 758 mmHg 91%
07:00 +12°C° 0 mm 1 mps 758 mmHg 90%
08:00 +15°C° 0 mm 1 mps 758 mmHg 80%
09:00 +18°C° 0 mm 1 mps 758 mmHg 70%
10:00 +20°C° 0 mm 1 mps 757 mmHg 60%
11:00 +22°C° 0 mm 1 mps 757 mmHg 54%
12:00 +23°C° 0 mm 1 mps 756 mmHg 49%
13:00 +24°C° 0 mm 1 mps 755 mmHg 43%
14:00 +24°C° 0 mm 2 mps 755 mmHg 45%
15:00 +24°C° 0 mm 2 mps 754 mmHg 47%
16:00 +23°C° 0 mm 2 mps 754 mmHg 49%
17:00 +20°C° 0 mm 2 mps 754 mmHg 58%
18:00 +19°C° 0 mm 2 mps 755 mmHg 67%
19:00 +17°C° 0 mm 2 mps 755 mmHg 77%
20:00 +16°C° 0 mm 2 mps 755 mmHg 78%
21:00 +16°C° 0 mm 1 mps 755 mmHg 80%
22:00 +15°C° 0 mm 1 mps 755 mmHg 82%
23:00 +15°C° 0 mm 1 mps 755 mmHg 81%

20 April, Tuesday

Time Temperature Precipitation Wind Pressure Humidity
00:00 +14°C° 0 mm 1 mps 755 mmHg 80%
01:00 +13°C° 0 mm 2 mps 755 mmHg 79%
02:00 +13°C° 0 mm 2 mps 755 mmHg 74%
03:00 +12°C° 0 mm 2 mps 754 mmHg 70%
04:00 +12°C° 0 mm 2 mps 754 mmHg 66%
05:00 +12°C° 0 mm 2 mps 754 mmHg 65%
06:00 +12°C° 0 mm 2 mps 754 mmHg 63%
07:00 +10°C° 0 mm 2 mps 754 mmHg 62%
08:00 +14°C° 0 mm 2 mps 754 mmHg 55%
09:00 +17°C° 0 mm 2 mps 754 mmHg 48%
10:00 +20°C° 0 mm 2 mps 754 mmHg 41%
11:00 +22°C° 0 mm 3 mps 753 mmHg 36%
12:00 +24°C° 0 mm 3 mps 752 mmHg 32%
13:00 +26°C° 0 mm 4 mps 751 mmHg 28%
14:00 +25°C° 0 mm 4 mps 751 mmHg 30%
15:00 +25°C° 0 mm 4 mps 750 mmHg 32%
16:00 +23°C° 0 mm 4 mps 750 mmHg 34%
17:00 +22°C° 0 mm 3 mps 750 mmHg 37%
18:00 +20°C° 0 mm 3 mps 750 mmHg 41%
19:00 +18°C° 0 mm 3 mps 751 mmHg 45%
20:00 +17°C° 0 mm 3 mps 750 mmHg 48%
21:00 +17°C° 0 mm 3 mps 750 mmHg 50%
22:00 +16°C° 0 mm 3 mps 749 mmHg 53%
23:00 +14°C° 0 mm 3 mps 749 mmHg 54%

21 April, Wednesday

Time Temperature Precipitation Wind Pressure Humidity
00:00 +14°C° 0 mm 3 mps 748 mmHg 55%
01:00 +14°C° 0 mm 2 mps 748 mmHg 56%
02:00 +13°C° 0 mm 3 mps 748 mmHg 58%
03:00 +13°C° 0 mm 4 mps 748 mmHg 59%
04:00 +12°C° 0 mm 5 mps 748 mmHg 61%
05:00 +12°C° 0 mm 5 mps 749 mmHg 63%
06:00 +11°C° 0 mm 4 mps 749 mmHg 65%
07:00 +11°C° 0 mm 4 mps 749 mmHg 67%
08:00 +12°C° 0 mm 5 mps 750 mmHg 61%
09:00 +14°C° 0 mm 6 mps 750 mmHg 56%
10:00 +15°C° 0 mm 7 mps 750 mmHg 50%
11:00 +16°C° 0 mm 6 mps 750 mmHg 48%
12:00 +17°C° 0 mm 6 mps 750 mmHg 47%
13:00 +19°C° 0 mm 6 mps 750 mmHg 45%
14:00 +19°C° 0 mm 5 mps 751 mmHg 47%
15:00 +17°C° 0 mm 5 mps 751 mmHg 49%
16:00 +17°C° 0 mm 5 mps 751 mmHg 50%
17:00 +15°C° 0 mm 5 mps 752 mmHg 55%
18:00 +14°C° 0 mm 4 mps 753 mmHg 59%
19:00 +13°C° 0 mm 4 mps 753 mmHg 63%
20:00 +12°C° 0 mm 3 mps 753 mmHg 65%
21:00 +11°C° 0 mm 3 mps 753 mmHg 68%
22:00 +10°C° 0 mm 3 mps 753 mmHg 70%
23:00 +10°C° 0 mm 3 mps 753 mmHg 69%
Show more